Hourly Weather Dzibice

Today, 12 May, Wednesday

Time Temperature Precipitation Wind Pressure Humidity
00:00 +15°C° 0 mm 2 mps 728 mmHg 90%
01:00 +15°C° 0 mm 2 mps 727 mmHg 90%
02:00 +14°C° 0 mm 2 mps 727 mmHg 91%
03:00 +14°C° 0 mm 2 mps 727 mmHg 91%
04:00 +14°C° 0 mm 2 mps 727 mmHg 92%
05:00 +15°C° 0 mm 2 mps 727 mmHg 87%
06:00 +16°C° 0 mm 3 mps 727 mmHg 83%
07:00 +18°C° 0 mm 3 mps 727 mmHg 78%
08:00 +19°C° 0 mm 3 mps 727 mmHg 74%
09:00 +21°C° 0 mm 3 mps 727 mmHg 69%
10:00 +22°C° 0 mm 4 mps 727 mmHg 65%
11:00 +23°C° 0.2 mm 4 mps 727 mmHg 63%
12:00 +25°C° 0.2 mm 5 mps 726 mmHg 60%
13:00 +24°C° 0.2 mm 6 mps 726 mmHg 58%
14:00 +24°C° 0.2 mm 6 mps 726 mmHg 61%
15:00 +23°C° 0.2 mm 7 mps 725 mmHg 64%
16:00 +22°C° 0.2 mm 7 mps 725 mmHg 67%
17:00 +20°C° 0.3 mm 7 mps 725 mmHg 71%
18:00 +18°C° 0.3 mm 7 mps 725 mmHg 75%
19:00 +16°C° 0.3 mm 6 mps 725 mmHg 80%
20:00 +15°C° 0.2 mm 6 mps 725 mmHg 82%
21:00 +13°C° 0.2 mm 5 mps 725 mmHg 85%
22:00 +12°C° 0.2 mm 5 mps 725 mmHg 88%
23:00 +11°C° 0 mm 4 mps 725 mmHg 87%

Tomorrow, 13 May, Thursday

Time Temperature Precipitation Wind Pressure Humidity
00:00 +10°C° 0 mm 4 mps 725 mmHg 86%
01:00 +8°C° 0 mm 4 mps 724 mmHg 85%
02:00 +9°C° 0 mm 3 mps 724 mmHg 86%
03:00 +8°C° 0 mm 3 mps 724 mmHg 88%
04:00 +7°C° 0 mm 2 mps 723 mmHg 89%
05:00 +8°C° 0 mm 2 mps 723 mmHg 86%
06:00 +9°C° 0 mm 3 mps 723 mmHg 83%
07:00 +10°C° 0 mm 3 mps 723 mmHg 81%
08:00 +12°C° 0 mm 2 mps 723 mmHg 78%
09:00 +14°C° 0 mm 2 mps 722 mmHg 76%
10:00 +15°C° 0 mm 1 mps 722 mmHg 73%
11:00 +15°C° 0 mm 2 mps 722 mmHg 73%
12:00 +16°C° 0 mm 2 mps 722 mmHg 73%
13:00 +16°C° 0 mm 2 mps 721 mmHg 73%
14:00 +16°C° 0.1 mm 2 mps 721 mmHg 77%
15:00 +14°C° 0.1 mm 3 mps 721 mmHg 81%
16:00 +14°C° 0.1 mm 3 mps 721 mmHg 84%
17:00 +13°C° 0.1 mm 3 mps 721 mmHg 87%
18:00 +13°C° 0.1 mm 3 mps 721 mmHg 90%
19:00 +12°C° 0.1 mm 3 mps 721 mmHg 93%
20:00 +12°C° 0.1 mm 4 mps 721 mmHg 94%
21:00 +11°C° 0.1 mm 4 mps 721 mmHg 95%
22:00 +11°C° 0.1 mm 4 mps 721 mmHg 96%
23:00 +11°C° 0.1 mm 4 mps 722 mmHg 96%

Day after tomorrow, 14 May, Friday

Time Temperature Precipitation Wind Pressure Humidity
00:00 +9°C° 0.1 mm 5 mps 722 mmHg 96%
01:00 +9°C° 0.1 mm 5 mps 722 mmHg 96%
02:00 +9°C° 0.1 mm 5 mps 722 mmHg 96%
03:00 +8°C° 0.1 mm 5 mps 722 mmHg 96%
04:00 +8°C° 0.1 mm 5 mps 723 mmHg 95%
05:00 +8°C° 0.1 mm 5 mps 723 mmHg 94%
06:00 +8°C° 0.1 mm 5 mps 724 mmHg 94%
07:00 +8°C° 0.1 mm 5 mps 724 mmHg 93%
08:00 +8°C° 0.1 mm 5 mps 725 mmHg 92%
09:00 +8°C° 0.1 mm 5 mps 725 mmHg 91%
10:00 +8°C° 0.1 mm 5 mps 726 mmHg 91%
11:00 +9°C° 0.1 mm 5 mps 726 mmHg 86%
12:00 +10°C° 0.1 mm 5 mps 726 mmHg 81%
13:00 +12°C° 0.1 mm 5 mps 726 mmHg 76%
14:00 +12°C° 0.1 mm 4 mps 727 mmHg 74%
15:00 +13°C° 0.1 mm 4 mps 727 mmHg 72%
16:00 +13°C° 0.1 mm 3 mps 727 mmHg 70%
17:00 +13°C° 0 mm 2 mps 727 mmHg 74%
18:00 +13°C° 0 mm 2 mps 727 mmHg 78%
19:00 +12°C° 0 mm 1 mps 727 mmHg 82%
20:00 +11°C° 0 mm 1 mps 727 mmHg 84%
21:00 +11°C° 0 mm 1 mps 727 mmHg 85%
22:00 +9°C° 0 mm 2 mps 728 mmHg 87%
23:00 +10°C° 0 mm 2 mps 728 mmHg 86%

15 May, Saturday

Time Temperature Precipitation Wind Pressure Humidity
00:00 +11°C° 0 mm 1 mps 728 mmHg 85%
01:00 +11°C° 0 mm 1 mps 728 mmHg 84%
02:00 +11°C° 0 mm 1 mps 728 mmHg 85%
03:00 +11°C° 0 mm 1 mps 728 mmHg 86%
04:00 +10°C° 0 mm 1 mps 728 mmHg 87%
05:00 +11°C° 0 mm 1 mps 728 mmHg 84%
06:00 +12°C° 0 mm 1 mps 728 mmHg 81%
07:00 +13°C° 0 mm 1 mps 728 mmHg 77%
08:00 +14°C° 0.1 mm 1 mps 729 mmHg 72%
09:00 +16°C° 0.1 mm 1 mps 729 mmHg 67%
10:00 +18°C° 0.1 mm 1 mps 729 mmHg 62%
11:00 +18°C° 0.5 mm 1 mps 728 mmHg 61%
12:00 +19°C° 0.5 mm 1 mps 728 mmHg 61%
13:00 +19°C° 0.5 mm 1 mps 728 mmHg 61%
14:00 +18°C° 0.4 mm 1 mps 728 mmHg 66%
15:00 +16°C° 0.4 mm 2 mps 728 mmHg 71%
16:00 +15°C° 0.4 mm 2 mps 728 mmHg 76%
17:00 +15°C° 0.2 mm 1 mps 728 mmHg 79%
18:00 +14°C° 0.2 mm 1 mps 728 mmHg 82%
19:00 +13°C° 0.2 mm 1 mps 728 mmHg 85%
20:00 +11°C° 0.1 mm 0 mps 728 mmHg 86%
21:00 +11°C° 0.1 mm 0 mps 728 mmHg 87%
22:00 +10°C° 0.1 mm 0 mps 728 mmHg 88%
23:00 +10°C° 0.2 mm 0 mps 728 mmHg 89%

16 May, Sunday

Time Temperature Precipitation Wind Pressure Humidity
00:00 +10°C° 0.2 mm 0 mps 728 mmHg 90%
01:00 +10°C° 0.2 mm 0 mps 728 mmHg 91%
02:00 +10°C° 0.2 mm 0 mps 728 mmHg 91%
03:00 +10°C° 0.2 mm 0 mps 727 mmHg 92%
04:00 +9°C° 0.2 mm 0 mps 727 mmHg 93%
05:00 +12°C° 0 mm 1 mps 727 mmHg 90%
06:00 +13°C° 0 mm 1 mps 728 mmHg 87%
07:00 +14°C° 0 mm 1 mps 728 mmHg 84%
08:00 +14°C° 0.1 mm 1 mps 728 mmHg 80%
09:00 +15°C° 0.1 mm 1 mps 728 mmHg 76%
10:00 +16°C° 0.1 mm 2 mps 728 mmHg 73%
11:00 +17°C° 0.7 mm 2 mps 728 mmHg 72%
12:00 +17°C° 0.7 mm 2 mps 727 mmHg 72%
13:00 +17°C° 0.7 mm 2 mps 727 mmHg 71%
14:00 +17°C° 0.6 mm 3 mps 727 mmHg 72%
15:00 +17°C° 0.6 mm 3 mps 727 mmHg 73%
16:00 +17°C° 0.6 mm 3 mps 726 mmHg 74%
17:00 +16°C° 0.6 mm 3 mps 726 mmHg 78%
18:00 +14°C° 0.6 mm 3 mps 726 mmHg 82%
19:00 +14°C° 0.6 mm 2 mps 727 mmHg 86%
20:00 +13°C° 0.4 mm 2 mps 727 mmHg 89%
21:00 +12°C° 0.4 mm 2 mps 727 mmHg 92%
22:00 +12°C° 0.4 mm 2 mps 727 mmHg 95%
23:00 +10°C° 0 mm 2 mps 727 mmHg 95%

17 May, Monday

Time Temperature Precipitation Wind Pressure Humidity
00:00 +10°C° 0 mm 3 mps 727 mmHg 95%
01:00 +9°C° 0 mm 3 mps 727 mmHg 95%
02:00 +9°C° 0 mm 3 mps 727 mmHg 95%
03:00 +8°C° 0 mm 3 mps 727 mmHg 95%
04:00 +8°C° 0 mm 3 mps 728 mmHg 95%
05:00 +9°C° 0 mm 3 mps 728 mmHg 89%
06:00 +10°C° 0 mm 3 mps 728 mmHg 84%
07:00 +11°C° 0 mm 4 mps 729 mmHg 79%
08:00 +13°C° 0 mm 4 mps 729 mmHg 71%
09:00 +14°C° 0 mm 4 mps 729 mmHg 64%
10:00 +15°C° 0 mm 4 mps 729 mmHg 56%
11:00 +17°C° 0 mm 3 mps 729 mmHg 54%
12:00 +17°C° 0 mm 3 mps 728 mmHg 51%
13:00 +18°C° 0 mm 3 mps 728 mmHg 49%
14:00 +18°C° 0 mm 2 mps 728 mmHg 51%
15:00 +18°C° 0 mm 2 mps 728 mmHg 52%
16:00 +18°C° 0 mm 2 mps 728 mmHg 54%
17:00 +16°C° 0 mm 2 mps 728 mmHg 59%
18:00 +15°C° 0 mm 1 mps 728 mmHg 65%
19:00 +14°C° 0 mm 1 mps 728 mmHg 70%
20:00 +13°C° 0 mm 1 mps 728 mmHg 73%
21:00 +12°C° 0 mm 1 mps 728 mmHg 76%
22:00 +11°C° 0 mm 1 mps 728 mmHg 79%
23:00 +11°C° 0 mm 1 mps 728 mmHg 81%
Show more

We Need Your Consent

Meteoprog and our Service Providers may store and access personal data such as cookies, device identifiers or other similar technologies on your device and process such data to personalise content and ads, as well as provide social media features and to analyse the traffic.

  • Store and/or access information on your device

    Cookies, device identifiers or other information can be stored or accessed on your device for the purposes indicated above.

  • Personalised ads and content, ad and content measurement, audience insights, and products development

    Ads and content can be personalised based on a profile. More data can be added to better personalise ads and content. Ad and content performance can be measured. Insights about the audience who saw the ads and content can be derived. Such data can be used to develop or improve user’s experience, systems and software.

By clicking ‘I Agree’ you will allow the use of indicated cookies, device identifiers, web beacons or other similar technologies. Your settings can be changed in the browser on your device.

For certain purposes, legitimate interests may be relied on, rather than consent. You can read more about this in our Privacy and Cookie Policy.